Simultaneous Nadir Overpasses (SNOs) Predictions

Prediction of SNOs between METOP-A and TERRA Satellite Orbit:

Table of predicted SNOs for the next 14.0 days since TLE Epoch: 7/3/2021
Index Date (METOP-A) Time (METOP-A) Lat,Lon (METOP-A) SZA (METOP-A ) Date (TERRA) Time (TERRA) Lat,Lon (TERRA) SZA (TERRA ) Distance(km) Time Diff (sec)
1 07/05/2021 16:05:45 -81.31, 164.17 118.80 07/05/2021 16:06:32 -81.30, 164.28 118.78 2.07 47
2 07/05/2021 16:56:25 81.29, -28.10 61.24 07/05/2021 16:55:58 81.30, -28.01 61.24 1.96 27
3 07/08/2021 11:40:06 -81.30,-129.33 118.51 07/08/2021 11:40:44 -81.30,-129.25 118.49 1.41 38
4 07/08/2021 12:30:46 81.29, 38.38 61.53 07/08/2021 12:30:10 81.30, 38.44 61.53 2.06 36
5 07/11/2021 07:14:26 -81.30, -62.85 118.17 07/11/2021 07:14:55 -81.30, -62.81 118.15 0.70 29
6 07/11/2021 08:05:07 81.30, 104.46 61.84 07/11/2021 08:04:22 81.28, 104.47 61.81 2.01 45
7 07/14/2021 02:48:47 -81.29, 3.62 117.77 07/14/2021 02:49:07 -81.30, 3.58 117.76 0.87 20
8 07/14/2021 03:39:28 81.29, 170.90 62.23 07/14/2021 03:38:34 81.28, 170.84 62.19 2.31 54
9 07/16/2021 22:23:08 -81.29, 70.06 117.33 07/16/2021 22:23:19 -81.29, 69.92 117.34 2.40 11



Historial Predications of SNOs between METOP-A and TERRA
